When you browse on this site, cookies collect data to enhance your experience and personalize the content and advertising you see.
Visit our Privacy Policy to learn more. By continuing to use the site, you agree to this use of cookies and data.
  • în România
  • Lista ţărilor
  • Pe 7 zile
  • Temperatura apei
  • Meteo pe hartă
  • Widget-uri
  • user-avatar
    Intrare

    Meteo pe oră la Shaki

    Astăzi, 18 Octombrie, Vineri

    Timp Temperatura Precipitaţii Vânt Presiune Umiditate
    00:00 +16°C° 0 mm 1 m/s 739 mmHg 76%
    01:00 +16°C° 0 mm 1 m/s 739 mmHg 76%
    02:00 +16°C° 0 mm 1 m/s 738 mmHg 76%
    03:00 +15°C° 0 mm 1 m/s 738 mmHg 80%
    04:00 +14°C° 0 mm 0 m/s 738 mmHg 80%
    05:00 +14°C° 0 mm 0 m/s 738 mmHg 80%
    06:00 +14°C° 0 mm 0 m/s 738 mmHg 80%
    07:00 +16°C° 0 mm 0 m/s 738 mmHg 75%
    08:00 +19°C° 0 mm 1 m/s 738 mmHg 69%
    09:00 +21°C° 0 mm 1 m/s 738 mmHg 64%
    10:00 +23°C° 0 mm 1 m/s 737 mmHg 60%
    11:00 +24°C° 0 mm 1 m/s 737 mmHg 55%
    12:00 +25°C° 0 mm 2 m/s 737 mmHg 50%
    13:00 +25°C° 0 mm 2 m/s 737 mmHg 49%
    14:00 +26°C° 0 mm 2 m/s 736 mmHg 47%
    15:00 +26°C° 0 mm 2 m/s 736 mmHg 45%
    16:00 +24°C° 0 mm 1 m/s 736 mmHg 52%
    17:00 +22°C° 0 mm 1 m/s 736 mmHg 58%
    18:00 +18°C° 0 mm 0 m/s 736 mmHg 64%
    19:00 +20°C° 0 mm 1 m/s 736 mmHg 64%
    20:00 +20°C° 0 mm 1 m/s 736 mmHg 64%
    21:00 +20°C° 0 mm 1 m/s 736 mmHg 64%
    22:00 +19°C° 0 mm 1 m/s 736 mmHg 64%
    23:00 +19°C° 0 mm 1 m/s 736 mmHg 64%

    Mâine, 19 Octombrie, Sâmbătă

    Timp Temperatura Precipitaţii Vânt Presiune Umiditate
    00:00 +16°C° 0 mm 0 m/s 736 mmHg 65%
    01:00 +16°C° 0 mm 0 m/s 736 mmHg 65%
    02:00 +16°C° 0 mm 0 m/s 736 mmHg 66%
    03:00 +16°C° 0 mm 0 m/s 736 mmHg 66%
    04:00 +18°C° 0 mm 1 m/s 736 mmHg 67%
    05:00 +16°C° 0 mm 1 m/s 736 mmHg 68%
    06:00 +16°C° 0 mm 1 m/s 737 mmHg 68%
    07:00 +19°C° 0 mm 1 m/s 737 mmHg 62%
    08:00 +21°C° 0 mm 1 m/s 737 mmHg 55%
    09:00 +23°C° 0 mm 1 m/s 737 mmHg 48%
    10:00 +24°C° 0 mm 1 m/s 737 mmHg 46%
    11:00 +26°C° 0 mm 1 m/s 737 mmHg 43%
    12:00 +27°C° 0 mm 1 m/s 737 mmHg 40%
    13:00 +27°C° 0.1 mm 2 m/s 737 mmHg 40%
    14:00 +27°C° 0.1 mm 2 m/s 736 mmHg 40%
    15:00 +27°C° 0.1 mm 2 m/s 736 mmHg 40%
    16:00 +25°C° 0 mm 2 m/s 736 mmHg 46%
    17:00 +24°C° 0 mm 2 m/s 737 mmHg 52%
    18:00 +22°C° 0 mm 1 m/s 737 mmHg 59%
    19:00 +20°C° 0 mm 2 m/s 737 mmHg 60%
    20:00 +20°C° 0 mm 2 m/s 738 mmHg 61%
    21:00 +19°C° 0 mm 2 m/s 738 mmHg 61%
    22:00 +19°C° 0 mm 2 m/s 738 mmHg 65%
    23:00 +18°C° 0 mm 2 m/s 738 mmHg 69%

    Poimâine, 20 Octombrie, Duminică

    Timp Temperatura Precipitaţii Vânt Presiune Umiditate
    00:00 +19°C° 0 mm 1 m/s 738 mmHg 72%
    01:00 +18°C° 0 mm 1 m/s 738 mmHg 73%
    02:00 +18°C° 0 mm 1 m/s 738 mmHg 74%
    03:00 +18°C° 0 mm 1 m/s 738 mmHg 75%
    04:00 +16°C° 0 mm 1 m/s 739 mmHg 76%
    05:00 +16°C° 0 mm 1 m/s 739 mmHg 76%
    06:00 +15°C° 0 mm 0 m/s 739 mmHg 76%
    07:00 +19°C° 0 mm 1 m/s 739 mmHg 70%
    08:00 +20°C° 0 mm 1 m/s 739 mmHg 64%
    09:00 +22°C° 0 mm 1 m/s 740 mmHg 58%
    10:00 +23°C° 0 mm 2 m/s 739 mmHg 54%
    11:00 +24°C° 0 mm 2 m/s 739 mmHg 50%
    12:00 +25°C° 0 mm 2 m/s 739 mmHg 46%
    13:00 +25°C° 0.1 mm 2 m/s 739 mmHg 46%
    14:00 +25°C° 0.1 mm 2 m/s 739 mmHg 46%
    15:00 +26°C° 0.1 mm 2 m/s 739 mmHg 45%
    16:00 +24°C° 0 mm 2 m/s 739 mmHg 51%
    17:00 +21°C° 0 mm 2 m/s 739 mmHg 56%
    18:00 +21°C° 0 mm 1 m/s 739 mmHg 61%
    19:00 +19°C° 0 mm 2 m/s 739 mmHg 63%
    20:00 +19°C° 0 mm 2 m/s 740 mmHg 65%
    21:00 +19°C° 0 mm 2 m/s 740 mmHg 66%
    22:00 +18°C° 0 mm 2 m/s 740 mmHg 72%
    23:00 +17°C° 0 mm 2 m/s 740 mmHg 77%

    21 Octombrie, Luni

    Timp Temperatura Precipitaţii Vânt Presiune Umiditate
    00:00 +16°C° 0 mm 2 m/s 740 mmHg 83%
    01:00 +16°C° 0 mm 2 m/s 740 mmHg 83%
    02:00 +16°C° 0 mm 1 m/s 740 mmHg 82%
    03:00 +15°C° 0 mm 1 m/s 740 mmHg 82%
    04:00 +15°C° 0 mm 1 m/s 740 mmHg 82%
    05:00 +15°C° 0 mm 1 m/s 740 mmHg 82%
    06:00 +14°C° 0 mm 0 m/s 740 mmHg 82%
    07:00 +18°C° 0 mm 1 m/s 740 mmHg 73%
    08:00 +19°C° 0 mm 1 m/s 740 mmHg 64%
    09:00 +20°C° 0 mm 2 m/s 740 mmHg 56%
    10:00 +21°C° 0 mm 2 m/s 740 mmHg 52%
    11:00 +23°C° 0 mm 2 m/s 740 mmHg 49%
    12:00 +24°C° 0 mm 2 m/s 740 mmHg 45%
    13:00 +24°C° 0 mm 2 m/s 740 mmHg 45%
    14:00 +24°C° 0 mm 2 m/s 739 mmHg 45%
    15:00 +25°C° 0 mm 2 m/s 739 mmHg 45%
    16:00 +23°C° 0 mm 1 m/s 739 mmHg 50%
    17:00 +21°C° 0 mm 1 m/s 739 mmHg 56%
    18:00 +20°C° 0 mm 1 m/s 739 mmHg 61%
    19:00 +19°C° 0 mm 1 m/s 739 mmHg 63%
    20:00 +19°C° 0 mm 1 m/s 740 mmHg 64%
    21:00 +17°C° 0 mm 2 m/s 740 mmHg 66%
    22:00 +17°C° 0 mm 2 m/s 740 mmHg 66%
    23:00 +16°C° 0 mm 2 m/s 739 mmHg 66%

    22 Octombrie, Marţi

    Timp Temperatura Precipitaţii Vânt Presiune Umiditate
    00:00 +16°C° 0 mm 2 m/s 739 mmHg 67%
    01:00 +15°C° 0 mm 1 m/s 739 mmHg 67%
    02:00 +15°C° 0 mm 1 m/s 739 mmHg 67%
    03:00 +15°C° 0 mm 1 m/s 739 mmHg 68%
    04:00 +14°C° 0 mm 0 m/s 739 mmHg 68%
    05:00 +13°C° 0 mm 0 m/s 739 mmHg 68%
    06:00 +13°C° 0 mm 0 m/s 739 mmHg 69%
    07:00 +16°C° 0 mm 1 m/s 739 mmHg 62%
    08:00 +19°C° 0 mm 1 m/s 739 mmHg 56%
    09:00 +20°C° 0 mm 1 m/s 740 mmHg 50%
    10:00 +20°C° 0 mm 2 m/s 739 mmHg 47%
    11:00 +21°C° 0 mm 2 m/s 739 mmHg 44%
    12:00 +23°C° 0 mm 2 m/s 739 mmHg 41%
    13:00 +24°C° 0 mm 2 m/s 739 mmHg 40%
    14:00 +24°C° 0 mm 2 m/s 738 mmHg 39%
    15:00 +24°C° 0 mm 2 m/s 738 mmHg 39%
    16:00 +21°C° 0 mm 2 m/s 738 mmHg 44%
    17:00 +20°C° 0 mm 1 m/s 738 mmHg 49%
    18:00 +19°C° 0 mm 1 m/s 738 mmHg 54%
    19:00 +18°C° 0 mm 1 m/s 738 mmHg 55%
    20:00 +18°C° 0 mm 1 m/s 738 mmHg 56%
    21:00 +16°C° 0 mm 1 m/s 738 mmHg 57%
    22:00 +16°C° 0 mm 1 m/s 738 mmHg 58%
    23:00 +15°C° 0 mm 1 m/s 738 mmHg 59%

    23 Octombrie, Miercuri

    Timp Temperatura Precipitaţii Vânt Presiune Umiditate
    00:00 +15°C° 0 mm 1 m/s 738 mmHg 60%
    01:00 +15°C° 0 mm 1 m/s 738 mmHg 62%
    02:00 +13°C° 0 mm 0 m/s 737 mmHg 63%
    03:00 +13°C° 0 mm 0 m/s 737 mmHg 64%
    04:00 +13°C° 0 mm 0 m/s 737 mmHg 64%
    05:00 +13°C° 0 mm 0 m/s 737 mmHg 64%
    06:00 +12°C° 0 mm 0 m/s 737 mmHg 65%
    07:00 +15°C° 0 mm 1 m/s 737 mmHg 59%
    08:00 +18°C° 0 mm 1 m/s 737 mmHg 52%
    09:00 +20°C° 0 mm 1 m/s 738 mmHg 46%
    10:00 +22°C° 0 mm 1 m/s 737 mmHg 44%
    11:00 +23°C° 0 mm 1 m/s 737 mmHg 42%
    12:00 +24°C° 0 mm 2 m/s 737 mmHg 39%
    13:00 +24°C° 0 mm 2 m/s 737 mmHg 39%
    14:00 +24°C° 0 mm 2 m/s 737 mmHg 39%
    15:00 +24°C° 0 mm 2 m/s 737 mmHg 39%
    16:00 +22°C° 0 mm 1 m/s 737 mmHg 44%
    17:00 +20°C° 0 mm 1 m/s 737 mmHg 49%
    18:00 +19°C° 0 mm 1 m/s 737 mmHg 55%
    19:00 +18°C° 0 mm 1 m/s 738 mmHg 56%
    20:00 +18°C° 0 mm 1 m/s 738 mmHg 57%
    21:00 +16°C° 0 mm 1 m/s 738 mmHg 58%
    22:00 +16°C° 0 mm 1 m/s 738 mmHg 62%
    23:00 +16°C° 0 mm 1 m/s 738 mmHg 66%
    Arată mai mult